Location: Lombard
(41.8800°N, 88.0080°W)
Time: 00:17:46
(UTC-05:00)

A-11 Canister half - Pass Details

Date: 02 February 2023
Orbit: 1512 x 1687 km, 47.2° (Epoch: 20 March)

Event Time Altitude Azimuth Distance (km) Brightness Sun altitude
Rises 08:33:59 0° 183° (S) 4,877 12.2 13.7°
Reaches altitude 10° 08:38:20 10° 168° (SSE) 3,867 12.1 14.3°
Maximum altitude 08:44:43 20° 126° (SE) 3,128 13.7 15.3°
Drops below altitude 10° 08:50:58 10° 85° (E) 3,786 11.8 16.1°
Sets 08:55:06 0° 69° (ENE) 4,744 11.9 16.7°
